| time (UTC) | temp F | wind direction | speed MPH | gust MPH | rain 1hr in | rain 24hr in | rain mn in | humidity % | barometer mb |
| 20260906055541 | 73 | 266 | 3.0 | 0.0 | 0.00 | 0.00 | 0.01 | 37 | 1010.6 |
| 20260906055040 | 73 | 274 | 3.0 | 0.0 | 0.00 | 0.00 | 0.01 | 37 | 1010.6 |
| 20260906054558 | 73 | 279 | 2.0 | 0.0 | 0.00 | 0.00 | 0.01 | 37 | 1010.6 |
| 20260906054040 | 73 | 272 | 2.0 | 0.0 | 0.00 | 0.00 | 0.01 | 37 | 1010.9 |
| 20260906053538 | 73 | 305 | 3.0 | 0.0 | 0.00 | 0.00 | 0.01 | 37 | 1010.9 |
| 20260906053039 | 72 | 292 | 3.0 | 0.0 | 0.00 | 0.00 | 0.01 | 38 | 1010.9 |
| 20260906052539 | 72 | 296 | 3.0 | 0.0 | 0.00 | 0.00 | 0.01 | 39 | 1011.0 |
| 20260906052039 | 72 | 267 | 3.0 | 0.0 | 0.00 | 0.00 | 0.01 | 39 | 1011.0 |
| 20260906051538 | 72 | 242 | 3.0 | 0.0 | 0.00 | 0.00 | 0.01 | 39 | 1011.0 |
| 20260906051039 | 72 | 262 | 3.0 | 0.0 | 0.00 | 0.00 | 0.01 | 39 | 1011.2 |
| 20260906050541 | 72 | 279 | 3.0 | 0.0 | 0.00 | 0.00 | 0.01 | 39 | 1011.2 |
| 20260906050040 | 72 | 246 | 3.0 | 0.0 | 0.00 | 0.00 | 0.01 | 40 | 1011.2 |
| 20260906045539 | 72 | 248 | 2.0 | 0.0 | 0.00 | 0.00 | 0.01 | 40 | 1011.2 |
| 20260906045038 | 72 | 262 | 2.0 | 0.0 | 0.00 | 0.00 | 0.01 | 40 | 1011.2 |
| 20260906044538 | 71 | 266 | 2.0 | 0.0 | 0.00 | 0.00 | 0.01 | 40 | 1011.2 |
| 20260906044039 | 71 | 294 | 2.0 | 0.0 | 0.00 | 0.00 | 0.01 | 40 | 1011.2 |
| 20260906043537 | 71 | 273 | 2.0 | 0.0 | 0.00 | 0.00 | 0.01 | 41 | 1011.2 |
| 20260906043037 | 71 | 281 | 2.0 | 0.0 | 0.00 | 0.00 | 0.01 | 41 | 1011.2 |
| 20260906042537 | 71 | 290 | 2.0 | 0.0 | 0.00 | 0.00 | 0.01 | 42 | 1011.1 |
| 20260906042037 | 71 | 277 | 2.0 | 0.0 | 0.00 | 0.00 | 0.01 | 42 | 1011.1 |
| 20260906041536 | 71 | 304 | 2.0 | 0.0 | 0.00 | 0.00 | 0.01 | 42 | 1011.1 |
| 20260906041038 | 71 | 270 | 2.0 | 0.0 | 0.00 | 0.00 | 0.01 | 42 | 1010.9 |
| 20260906040537 | 71 | 286 | 2.0 | 0.0 | 0.00 | 0.00 | 0.01 | 44 | 1010.9 |
| 20260906040045 | 72 | 277 | 1.0 | 0.0 | 0.00 | 0.00 | 0.01 | 43 | 1010.9 |
| 20260906035537 | 72 | 276 | 1.0 | 0.0 | 0.00 | 0.00 | 0.01 | 41 | 1010.8 |
| 20260906035036 | 72 | 277 | 1.0 | 0.0 | 0.00 | 0.00 | 0.01 | 40 | 1010.8 |
| 20260906034547 | 72 | 274 | 1.0 | 0.0 | 0.00 | 0.00 | 0.01 | 39 | 1010.8 |
| 20260906034035 | 72 | 260 | 1.0 | 0.0 | 0.00 | 0.00 | 0.01 | 38 | 1010.8 |
| 20260906033535 | 72 | 266 | 1.0 | 0.0 | 0.00 | 0.00 | 0.01 | 39 | 1010.8 |
| 20260906033035 | 72 | 301 | 1.0 | 0.0 | 0.00 | 0.00 | 0.01 | 39 | 1010.8 |
| 20260906032537 | 72 | 269 | 0.0 | 0.0 | 0.00 | 0.00 | 0.01 | 38 | 1010.7 |
| 20260906032035 | 72 | 295 | 0.0 | 0.0 | 0.00 | 0.00 | 0.01 | 39 | 1010.7 |
| 20260906031601 | 72 | 295 | 0.0 | 0.0 | 0.00 | 0.00 | 0.01 | 39 | 1010.7 |
| 20260906031039 | 72 | 295 | 1.0 | 0.0 | 0.00 | 0.00 | 0.01 | 39 | 1010.7 |
| 20260906030535 | 72 | 278 | 1.0 | 0.0 | 0.00 | 0.00 | 0.01 | 38 | 1010.7 |
| 20260906030035 | 73 | 297 | 1.0 | 0.0 | 0.00 | 0.00 | 0.01 | 38 | 1010.7 |
| 20260906025534 | 73 | 250 | 1.0 | 0.0 | 0.00 | 0.00 | 0.01 | 39 | 1010.5 |
| 20260906025034 | 73 | 270 | 1.0 | 0.0 | 0.00 | 0.00 | 0.01 | 40 | 1010.5 |
| 20260906024553 | 73 | 277 | 2.0 | 0.0 | 0.00 | 0.00 | 0.01 | 41 | 1010.5 |
| 20260906024035 | 73 | 297 | 2.0 | 0.0 | 0.00 | 0.00 | 0.01 | 43 | 1010.6 |
| 20260906023532 | 73 | 236 | 3.0 | 0.0 | 0.00 | 0.00 | 0.01 | 44 | 1010.6 |
| 20260906023036 | 73 | 234 | 3.0 | 0.0 | 0.00 | 0.00 | 0.01 | 44 | 1010.6 |
| 20260906022531 | 72 | 278 | 3.0 | 0.0 | 0.00 | 0.00 | 0.01 | 46 | 1010.7 |
| 20260906022031 | 72 | 291 | 2.0 | 0.0 | 0.00 | 0.00 | 0.01 | 48 | 1010.7 |
| 20260906021531 | 72 | 255 | 2.0 | 0.0 | 0.00 | 0.00 | 0.01 | 54 | 1010.7 |
| 20260906021029 | 72 | 237 | 2.0 | 0.0 | 0.00 | 0.00 | 0.01 | 55 | 1010.9 |
| 20260906020534 | 72 | 260 | 1.0 | 0.0 | 0.00 | 0.00 | 0.01 | 56 | 1010.9 |
| 20260906020029 | 72 | 274 | 1.0 | 0.0 | 0.00 | 0.00 | 0.01 | 59 | 1010.9 |
| 20260906015530 | 73 | 202 | 2.0 | 0.0 | 0.00 | 0.00 | 0.01 | 62 | 1010.8 |
| 20260906015029 | 73 | 184 | 2.0 | 0.0 | 0.00 | 0.00 | 0.01 | 63 | 1010.8 |
| 20260906014529 | 73 | 226 | 2.0 | 0.0 | 0.00 | 0.00 | 0.01 | 64 | 1010.8 |
| 20260906014029 | 73 | 201 | 2.0 | 0.0 | 0.00 | 0.00 | 0.01 | 66 | 1010.8 |
| 20260906013528 | 73 | 199 | 2.0 | 0.0 | 0.00 | 0.00 | 0.01 | 64 | 1010.8 |
| 20260906013028 | 73 | 205 | 3.0 | 0.0 | 0.00 | 0.00 | 0.01 | 63 | 1010.8 |
| 20260906012528 | 74 | 207 | 3.0 | 0.0 | 0.00 | 0.00 | 0.01 | 67 | 1010.6 |
| 20260906012028 | 75 | 238 | 3.0 | 0.0 | 0.00 | 0.00 | 0.01 | 65 | 1010.6 |
| 20260906011529 | 76 | 259 | 2.0 | 0.0 | 0.00 | 0.00 | 0.01 | 61 | 1010.6 |
| 20260906011028 | 76 | 209 | 1.0 | 0.0 | 0.00 | 0.00 | 0.01 | 58 | 1010.5 |
| 20260906010529 | 76 | 187 | 1.0 | 0.0 | 0.00 | 0.00 | 0.01 | 56 | 1010.5 |
| 20260906010043 | 75 | 294 | 2.0 | 0.0 | 0.00 | 0.00 | 0.01 | 59 | 1010.5 |
| 20260906005527 | 75 | 260 | 2.0 | 0.0 | 0.00 | 0.00 | 0.01 | 64 | 1010.7 |
| 20260906005028 | 75 | 215 | 2.0 | 0.0 | 0.00 | 0.00 | 0.01 | 66 | 1010.7 |
| 20260906004526 | 76 | 235 | 2.0 | 0.0 | 0.00 | 0.00 | 0.01 | 65 | 1010.7 |
| 20260906004026 | 76 | 178 | 2.0 | 0.0 | 0.00 | 0.00 | 0.01 | 66 | 1010.6 |
| 20260906003527 | 76 | 213 | 1.0 | 0.0 | 0.00 | 0.00 | 0.01 | 66 | 1010.6 |
| 20260906003027 | 76 | 194 | 2.0 | 0.0 | 0.00 | 0.00 | 0.01 | 63 | 1010.6 |
| 20260906002527 | 77 | 148 | 2.0 | 0.0 | 0.00 | 0.00 | 0.01 | 63 | 1010.5 |
| 20260906002026 | 77 | 173 | 2.0 | 0.0 | 0.00 | 0.00 | 0.01 | 64 | 1010.5 |
| 20260906001533 | 77 | 167 | 2.0 | 0.0 | 0.00 | 0.00 | 0.01 | 62 | 1010.5 |
| 20260906001026 | 77 | 179 | 2.0 | 0.0 | 0.00 | 0.00 | 0.01 | 60 | 1010.5 |
| 20260906000526 | 77 | 166 | 2.0 | 0.0 | 0.00 | 0.00 | 0.01 | 58 | 1010.5 |
| 20260906000026 | 78 | 172 | 2.0 | 0.0 | 0.00 | 0.00 | 0.01 | 57 | 1010.5 |
| 20260905235526 | 78 | 170 | 2.0 | 0.0 | 0.00 | 0.00 | 0.01 | 55 | 1010.6 |
| 20260905235028 | 78 | 215 | 2.0 | 0.0 | 0.00 | 0.00 | 0.01 | 58 | 1010.6 |
| 20260905234525 | 79 | 154 | 3.0 | 0.0 | 0.00 | 0.00 | 0.01 | 56 | 1010.6 |
| 20260905234025 | 79 | 205 | 3.0 | 0.0 | 0.00 | 0.00 | 0.01 | 52 | 1010.7 |
| 20260905233525 | 78 | 170 | 3.0 | 0.0 | 0.00 | 0.00 | 0.01 | 53 | 1010.7 |
| 20260905233025 | 78 | 181 | 3.0 | 0.0 | 0.00 | 0.00 | 0.01 | 51 | 1010.7 |
| 20260905232525 | 78 | 207 | 3.0 | 0.0 | 0.00 | 0.00 | 0.01 | 54 | 1010.5 |
| 20260905232025 | 79 | 183 | 3.0 | 0.0 | 0.00 | 0.00 | 0.01 | 55 | 1010.5 |
| 20260905231525 | 79 | 173 | 2.0 | 0.0 | 0.00 | 0.00 | 0.01 | 53 | 1010.5 |
| 20260905231025 | 79 | 141 | 2.0 | 0.0 | 0.00 | 0.00 | 0.01 | 52 | 1010.6 |
| 20260905230524 | 79 | 186 | 2.0 | 0.0 | 0.00 | 0.00 | 0.01 | 50 | 1010.6 |
| 20260905230031 | 79 | 176 | 2.0 | 0.0 | 0.00 | 0.00 | 0.01 | 53 | 1010.6 |
| 20260905225526 | 79 | 169 | 2.0 | 0.0 | 0.00 | 0.00 | 0.01 | 51 | 1010.7 |
| 20260905225023 | 80 | 144 | 2.0 | 0.0 | 0.00 | 0.00 | 0.01 | 57 | 1010.7 |
| 20260905224523 | 80 | 148 | 3.0 | 0.0 | 0.00 | 0.00 | 0.01 | 51 | 1010.7 |
| 20260905224022 | 81 | 182 | 2.0 | 0.0 | 0.00 | 0.00 | 0.01 | 51 | 1010.9 |
| 20260905223522 | 80 | 169 | 2.0 | 0.0 | 0.00 | 0.00 | 0.01 | 50 | 1010.9 |
| 20260905223021 | 79 | 206 | 2.0 | 0.0 | 0.00 | 0.00 | 0.01 | 49 | 1010.9 |
| 20260905222522 | 79 | 170 | 2.0 | 0.0 | 0.00 | 0.00 | 0.01 | 51 | 1011.1 |
| 20260905222021 | 79 | 195 | 2.0 | 0.0 | 0.00 | 0.00 | 0.01 | 51 | 1011.1 |
| 20260905221520 | 79 | 152 | 2.0 | 0.0 | 0.00 | 0.00 | 0.01 | 49 | 1011.1 |
| 20260905221021 | 79 | 169 | 2.0 | 0.0 | 0.00 | 0.00 | 0.01 | 58 | 1011.1 |
| 20260905220520 | 79 | 174 | 3.0 | 0.0 | 0.00 | 0.00 | 0.01 | 56 | 1011.1 |
| 20260905220023 | 79 | 182 | 3.0 | 0.0 | 0.00 | 0.00 | 0.01 | 55 | 1011.1 |
| 20260905215520 | 79 | 170 | 3.0 | 0.0 | 0.00 | 0.00 | 0.01 | 61 | 1011.1 |
| 20260905215020 | 80 | 155 | 3.0 | 0.0 | 0.00 | 0.00 | 0.01 | 61 | 1011.1 |
| 20260905214519 | 80 | 360 | 2.0 | 0.0 | 0.00 | 0.00 | 0.01 | 49 | 1011.1 |
| 20260905214018 | 80 | 212 | 2.0 | 0.0 | 0.00 | 0.00 | 0.01 | 55 | 1011.4 |
| 20260905213517 | 79 | 201 | 3.0 | 0.0 | 0.00 | 0.00 | 0.01 | 61 | 1011.4 |
| 20260905213016 | 79 | 206 | 3.0 | 0.0 | 0.00 | 0.00 | 0.01 | 59 | 1011.4 |
| 20260905212515 | 79 | 133 | 3.0 | 0.0 | 0.00 | 0.00 | 0.01 | 61 | 1011.5 |
| 20260905212013 | 78 | 172 | 3.0 | 0.0 | 0.00 | 0.00 | 0.01 | 60 | 1011.5 |
| 20260905211539 | 78 | 157 | 3.0 | 0.0 | 0.00 | 0.00 | 0.01 | 60 | 1011.5 |
| 20260905211014 | 78 | 206 | 3.0 | 0.0 | 0.00 | 0.00 | 0.01 | 61 | 1011.6 |
| 20260905210514 | 78 | 161 | 3.0 | 0.0 | 0.00 | 0.00 | 0.01 | 64 | 1011.6 |
| 20260905210013 | 78 | 177 | 2.0 | 0.0 | 0.00 | 0.00 | 0.01 | 66 | 1011.6 |
| 20260905205513 | 78 | 211 | 2.0 | 0.0 | 0.00 | 0.00 | 0.01 | 65 | 1011.7 |
| 20260905205013 | 78 | 143 | 2.0 | 0.0 | 0.00 | 0.00 | 0.01 | 67 | 1011.7 |
| 20260905204512 | 77 | 169 | 3.0 | 0.0 | 0.00 | 0.00 | 0.01 | 69 | 1011.7 |
| 20260905204015 | 78 | 176 | 3.0 | 0.0 | 0.00 | 0.00 | 0.01 | 70 | 1011.7 |
| 20260905203511 | 78 | 153 | 3.0 | 0.0 | 0.00 | 0.00 | 0.01 | 70 | 1011.7 |
| 20260905203011 | 78 | 165 | 2.0 | 0.0 | 0.00 | 0.00 | 0.01 | 68 | 1011.7 |
| 20260905202510 | 78 | 157 | 2.0 | 0.0 | 0.00 | 0.00 | 0.01 | 67 | 1011.8 |
| 20260905202009 | 77 | 107 | 2.0 | 0.0 | 0.00 | 0.00 | 0.01 | 69 | 1011.8 |
| 20260905201509 | 76 | 238 | 3.0 | 0.0 | 0.00 | 0.00 | 0.01 | 70 | 1011.8 |
| 20260905201008 | 75 | 166 | 2.0 | 0.0 | 0.00 | 0.00 | 0.01 | 72 | 1012.3 |
| 20260905200510 | 75 | 229 | 2.0 | 0.0 | 0.00 | 0.00 | 0.01 | 69 | 1012.3 |
| 20260905200009 | 75 | 206 | 3.0 | 0.0 | 0.00 | 0.00 | 0.01 | 74 | 1012.3 |
| 20260905195507 | 75 | 211 | 3.0 | 0.0 | 0.00 | 0.00 | 0.01 | 76 | 1012.4 |
| 20260905195009 | 75 | 219 | 3.0 | 0.0 | 0.00 | 0.00 | 0.01 | 76 | 1012.4 |
| 20260905194507 | 75 | 167 | 2.0 | 0.0 | 0.00 | 0.00 | 0.01 | 76 | 1012.4 |
| 20260905194007 | 75 | 155 | 2.0 | 0.0 | 0.00 | 0.00 | 0.01 | 77 | 1012.6 |
| 20260905193506 | 75 | 210 | 3.0 | 0.0 | 0.00 | 0.00 | 0.01 | 75 | 1012.6 |
| 20260905193006 | 75 | 194 | 3.0 | 0.0 | 0.00 | 0.00 | 0.01 | 73 | 1012.6 |
| 20260905192506 | 76 | 175 | 3.0 | 0.0 | 0.00 | 0.00 | 0.01 | 74 | 1012.5 |
| 20260905192006 | 76 | 200 | 3.0 | 0.0 | 0.00 | 0.00 | 0.01 | 73 | 1012.5 |
| 20260905191507 | 77 | 149 | 2.0 | 0.0 | 0.00 | 0.00 | 0.01 | 72 | 1012.5 |
| 20260905191006 | 77 | 158 | 2.0 | 0.0 | 0.00 | 0.00 | 0.01 | 71 | 1012.6 |
| 20260905190505 | 77 | 158 | 2.0 | 0.0 | 0.00 | 0.00 | 0.01 | 72 | 1012.6 |
| 20260905190006 | 77 | 168 | 2.0 | 0.0 | 0.00 | 0.00 | 0.01 | 70 | 1012.6 |
| 20260905185505 | 77 | 194 | 2.0 | 0.0 | 0.00 | 0.00 | 0.01 | 72 | 1012.8 |
| 20260905185005 | 77 | 157 | 2.0 | 0.0 | 0.00 | 0.00 | 0.01 | 69 | 1012.8 |
| 20260905184502 | 77 | 116 | 1.0 | 0.0 | 0.00 | 0.00 | 0.01 | 70 | 1012.8 |
| 20260905184002 | 75 | 136 | 1.0 | 0.0 | 0.00 | 0.00 | 0.01 | 61 | 1012.8 |
| 20260905183600 | 75 | 360 | 1.0 | 0.0 | 0.00 | 0.00 | 0.01 | 77 | 1012.8 |
| 20260905183059 | 75 | 186 | 1.0 | 0.0 | 0.00 | 0.00 | 0.01 | 78 | 1012.8 |
| 20260905182558 | 74 | 139 | 2.0 | 0.0 | 0.00 | 0.00 | 0.01 | 79 | 1012.9 |
| 20260905182057 | 74 | 190 | 2.0 | 0.0 | 0.00 | 0.00 | 0.01 | 79 | 1012.9 |
| 20260905181557 | 74 | 215 | 2.0 | 0.0 | 0.00 | 0.00 | 0.01 | 79 | 1012.9 |
| 20260905181056 | 74 | 192 | 2.0 | 0.0 | 0.00 | 0.00 | 0.01 | 79 | 1012.9 |
| 20260905180557 | 74 | 157 | 2.0 | 0.0 | 0.00 | 0.00 | 0.01 | 78 | 1012.9 |
| 20260905180103 | 74 | 197 | 2.0 | 0.0 | 0.00 | 0.00 | 0.01 | 79 | 1012.9 |
| 20260905175559 | 74 | 157 | 2.0 | 0.0 | 0.00 | 0.00 | 0.01 | 78 | 1012.9 |
| 20260905175055 | 74 | 159 | 2.0 | 0.0 | 0.00 | 0.00 | 0.01 | 79 | 1012.9 |
| 20260905174555 | 73 | 207 | 2.0 | 0.0 | 0.00 | 0.00 | 0.01 | 78 | 1012.9 |
| 20260905174054 | 73 | 187 | 2.0 | 0.0 | 0.00 | 0.00 | 0.01 | 81 | 1012.7 |
| 20260905173551 | 73 | 127 | 1.0 | 0.0 | 0.00 | 0.00 | 0.01 | 80 | 1012.7 |
| 20260905173100 | 72 | 176 | 1.0 | 0.0 | 0.00 | 0.00 | 0.01 | 81 | 1012.7 |
| 20260905172550 | 72 | 223 | 2.0 | 0.0 | 0.00 | 0.00 | 0.01 | 81 | 1012.7 |
| 20260905172050 | 71 | 190 | 2.0 | 0.0 | 0.00 | 0.00 | 0.01 | 82 | 1012.7 |
| 20260905171547 | 71 | 144 | 1.0 | 0.0 | 0.00 | 0.00 | 0.01 | 81 | 1012.7 |
| 20260905171046 | 71 | 217 | 1.0 | 0.0 | 0.00 | 0.00 | 0.01 | 83 | 1012.9 |
| 20260905170546 | 71 | 163 | 2.0 | 0.0 | 0.00 | 0.00 | 0.01 | 83 | 1012.9 |
| 20260905170045 | 71 | 155 | 2.0 | 0.0 | 0.00 | 0.00 | 0.01 | 83 | 1012.9 |
| 20260905165544 | 71 | 153 | 2.0 | 0.0 | 0.00 | 0.00 | 0.01 | 83 | 1012.8 |
| 20260905165045 | 70 | 181 | 1.0 | 0.0 | 0.00 | 0.00 | 0.01 | 85 | 1012.8 |
| 20260905164543 | 70 | 188 | 1.0 | 0.0 | 0.00 | 0.00 | 0.01 | 85 | 1012.8 |
| 20260905164040 | 70 | 161 | 1.0 | 0.0 | 0.00 | 0.00 | 0.01 | 86 | 1012.6 |
| 20260905163540 | 69 | 146 | 1.0 | 0.0 | 0.00 | 0.00 | 0.01 | 86 | 1012.6 |
| 20260905163040 | 69 | 198 | 1.0 | 0.0 | 0.00 | 0.00 | 0.01 | 87 | 1012.6 |
| 20260905162540 | 69 | 168 | 1.0 | 0.0 | 0.00 | 0.00 | 0.01 | 87 | 1012.5 |
| 20260905162038 | 69 | 159 | 1.0 | 0.0 | 0.00 | 0.00 | 0.01 | 88 | 1012.5 |
| 20260905161537 | 68 | 188 | 1.0 | 0.0 | 0.00 | 0.00 | 0.01 | 89 | 1012.5 |
| 20260905161036 | 68 | 127 | 1.0 | 0.0 | 0.00 | 0.00 | 0.01 | 89 | 1012.5 |
| 20260905160534 | 68 | 150 | 0.0 | 0.0 | 0.00 | 0.00 | 0.01 | 90 | 1012.5 |
| 20260905160035 | 67 | 186 | 0.0 | 0.0 | 0.00 | 0.00 | 0.01 | 91 | 1012.5 |
| 20260905155533 | 67 | 186 | 0.0 | 0.0 | 0.00 | 0.00 | 0.01 | 92 | 1012.6 |
| 20260905155032 | 66 | 194 | 1.0 | 0.0 | 0.00 | 0.00 | 0.01 | 92 | 1012.6 |
| 20260905154534 | 66 | 107 | 1.0 | 0.0 | 0.00 | 0.00 | 0.01 | 92 | 1012.6 |
| 20260905154032 | 65 | 44 | 1.0 | 0.0 | 0.00 | 0.00 | 0.01 | 93 | 1012.5 |
| 20260905153527 | 65 | 78 | 2.0 | 0.0 | 0.00 | 0.00 | 0.01 | 94 | 1012.5 |
| 20260905153026 | 64 | 86 | 2.0 | 0.0 | 0.00 | 0.00 | 0.01 | 95 | 1012.5 |
| 20260905152525 | 64 | 355 | 3.0 | 0.0 | 0.00 | 0.00 | 0.01 | 96 | 1012.2 |
| 20260905152027 | 64 | 46 | 3.0 | 0.0 | 0.00 | 0.00 | 0.01 | 96 | 1012.2 |
| 20260905151523 | 63 | 11 | 3.0 | 0.0 | 0.00 | 0.00 | 0.01 | 97 | 1012.2 |
| 20260905151023 | 63 | 355 | 2.0 | 0.0 | 0.00 | 0.00 | 0.01 | 97 | 1012.2 |
| 20260905150521 | 63 | 20 | 3.0 | 0.0 | 0.00 | 0.00 | 0.01 | 97 | 1012.2 |
| 20260905150021 | 62 | 20 | 3.0 | 0.0 | 0.00 | 0.00 | 0.01 | 97 | 1012.2 |
| 20260905145522 | 62 | 14 | 2.0 | 0.0 | 0.00 | 0.00 | 0.01 | 97 | 1012.3 |
| 20260905145020 | 61 | 12 | 2.0 | 0.0 | 0.00 | 0.00 | 0.01 | 97 | 1012.3 |
| 20260905144519 | 61 | 5 | 1.0 | 0.0 | 0.00 | 0.00 | 0.01 | 97 | 1012.3 |
| 20260905144018 | 61 | 71 | 0.0 | 0.0 | 0.00 | 0.00 | 0.01 | 97 | 1012.3 |
| 20260905143519 | 61 | 72 | 0.0 | 0.0 | 0.00 | 0.00 | 0.01 | 97 | 1012.3 |
| 20260905143022 | 61 | 72 | 0.0 | 0.0 | 0.00 | 0.00 | 0.01 | 97 | 1012.3 |
| 20260905142518 | 60 | 72 | 0.0 | 0.0 | 0.00 | 0.00 | 0.01 | 97 | 1012.2 |
| 20260905142021 | 60 | 71 | 0.0 | 0.0 | 0.00 | 0.00 | 0.01 | 97 | 1012.2 |
| 20260905141525 | 60 | 71 | 0.0 | 0.0 | 0.00 | 0.00 | 0.01 | 97 | 1012.2 |
| 20260905141021 | 60 | 71 | 0.0 | 0.0 | 0.00 | 0.00 | 0.01 | 97 | 1011.9 |
| 20260905140520 | 60 | 72 | 0.0 | 0.0 | 0.00 | 0.00 | 0.01 | 97 | 1011.9 |
| 20260905140018 | 59 | 72 | 0.0 | 0.0 | 0.00 | 0.00 | 0.01 | 97 | 1011.9 |
| 20260905135517 | 59 | 71 | 0.0 | 0.0 | 0.00 | 0.00 | 0.01 | 97 | 1011.7 |
| 20260905135017 | 59 | 71 | 0.0 | 0.0 | 0.00 | 0.00 | 0.01 | 97 | 1011.7 |
| 20260905134517 | 59 | 72 | 0.0 | 0.0 | 0.00 | 0.00 | 0.01 | 97 | 1011.7 |
| 20260905134019 | 59 | 72 | 0.0 | 0.0 | 0.00 | 0.00 | 0.01 | 97 | 1011.5 |
| 20260905133516 | 59 | 72 | 0.0 | 0.0 | 0.00 | 0.00 | 0.01 | 97 | 1011.5 |
| 20260905133016 | 59 | 71 | 0.0 | 0.0 | 0.00 | 0.00 | 0.01 | 97 | 1011.5 |
| 20260905132517 | 59 | 71 | 0.0 | 0.0 | 0.00 | 0.00 | 0.01 | 97 | 1011.7 |
| 20260905132017 | 59 | 72 | 0.0 | 0.0 | 0.00 | 0.00 | 0.01 | 97 | 1011.7 |
| 20260905131519 | 59 | 72 | 0.0 | 0.0 | 0.00 | 0.00 | 0.01 | 97 | 1011.7 |
| 20260905131015 | 59 | 71 | 0.0 | 0.0 | 0.00 | 0.00 | 0.01 | 97 | 1011.2 |
| 20260905130515 | 59 | 71 | 0.0 | 0.0 | 0.00 | 0.00 | 0.01 | 97 | 1011.2 |
| 20260905130014 | 59 | 72 | 0.0 | 0.0 | 0.00 | 0.00 | 0.01 | 97 | 1011.2 |
| 20260905125514 | 59 | 71 | 0.0 | 0.0 | 0.00 | 0.00 | 0.01 | 97 | 1011.2 |
| 20260905125015 | 59 | 71 | 0.0 | 0.0 | 0.00 | 0.00 | 0.01 | 97 | 1011.2 |
| 20260905124517 | 59 | 72 | 0.0 | 0.0 | 0.00 | 0.00 | 0.01 | 97 | 1011.2 |
| 20260905124015 | 59 | 71 | 0.0 | 0.0 | 0.00 | 0.00 | 0.01 | 97 | 1011.1 |
| 20260905123514 | 59 | 71 | 0.0 | 0.0 | 0.00 | 0.00 | 0.01 | 97 | 1011.1 |
| 20260905123012 | 59 | 72 | 0.0 | 0.0 | 0.00 | 0.00 | 0.01 | 97 | 1011.1 |
| 20260905122512 | 59 | 71 | 0.0 | 0.0 | 0.00 | 0.00 | 0.01 | 97 | 1011.1 |
| 20260905122012 | 59 | 71 | 0.0 | 0.0 | 0.00 | 0.00 | 0.01 | 97 | 1011.1 |
| 20260905121512 | 59 | 71 | 0.0 | 0.0 | 0.00 | 0.00 | 0.01 | 97 | 1011.1 |
| 20260905121011 | 59 | 72 | 0.0 | 0.0 | 0.00 | 0.00 | 0.01 | 97 | 1011.1 |
| 20260905120514 | 59 | 72 | 0.0 | 0.0 | 0.00 | 0.00 | 0.01 | 96 | 1011.1 |
| 20260905120009 | 60 | 71 | 0.0 | 0.0 | 0.00 | 0.00 | 0.01 | 96 | 1011.1 |
| 20260905115509 | 60 | 71 | 0.0 | 0.0 | 0.00 | 0.00 | 0.01 | 97 | 1011.0 |
| 20260905115012 | 61 | 72 | 0.0 | 0.0 | 0.00 | 0.00 | 0.01 | 97 | 1011.0 |
| 20260905114510 | 61 | 71 | 0.0 | 0.0 | 0.00 | 0.00 | 0.01 | 97 | 1011.0 |
| 20260905114008 | 61 | 71 | 0.0 | 0.0 | 0.00 | 0.00 | 0.01 | 97 | 1011.0 |
| 20260905113509 | 61 | 72 | 0.0 | 0.0 | 0.00 | 0.00 | 0.01 | 97 | 1011.0 |
| 20260905113008 | 61 | 79 | 0.0 | 0.0 | 0.00 | 0.00 | 0.01 | 97 | 1011.0 |
| 20260905112509 | 61 | 79 | 0.0 | 0.0 | 0.00 | 0.00 | 0.01 | 97 | 1011.0 |
| 20260905112007 | 61 | 79 | 0.0 | 0.0 | 0.00 | 0.00 | 0.01 | 97 | 1011.0 |
| 20260905111508 | 60 | 79 | 0.0 | 0.0 | 0.00 | 0.00 | 0.00 | 97 | 1011.0 |
| 20260905111007 | 60 | 79 | 0.0 | 0.0 | 0.00 | 0.00 | 0.00 | 97 | 1011.3 |
| 20260905110506 | 60 | 79 | 0.0 | 0.0 | 0.00 | 0.00 | 0.00 | 97 | 1011.3 |
| 20260905110007 | 60 | 79 | 0.0 | 0.0 | 0.00 | 0.00 | 0.00 | 97 | 1011.3 |
| 20260905105507 | 60 | 79 | 0.0 | 0.0 | 0.00 | 0.00 | 0.00 | 97 | 1011.3 |
| 20260905105008 | 60 | 79 | 0.0 | 0.0 | 0.00 | 0.00 | 0.00 | 96 | 1011.3 |
| 20260905104506 | 60 | 207 | 0.0 | 0.0 | 0.00 | 0.00 | 0.00 | 96 | 1011.3 |
| 20260905104005 | 60 | 207 | 0.0 | 0.0 | 0.00 | 0.00 | 0.00 | 96 | 1011.3 |
| 20260905103505 | 61 | 207 | 0.0 | 0.0 | 0.00 | 0.00 | 0.00 | 96 | 1011.3 |
| 20260905103005 | 61 | 207 | 0.0 | 0.0 | 0.00 | 0.00 | 0.00 | 96 | 1011.3 |
| 20260905102504 | 61 | 207 | 0.0 | 0.0 | 0.00 | 0.00 | 0.00 | 96 | 1011.2 |
| 20260905102004 | 61 | 207 | 0.0 | 0.0 | 0.00 | 0.00 | 0.00 | 96 | 1011.2 |
| 20260905101507 | 61 | 207 | 0.0 | 0.0 | 0.00 | 0.00 | 0.00 | 96 | 1011.2 |
| 20260905101003 | 61 | 207 | 0.0 | 0.0 | 0.00 | 0.00 | 0.00 | 96 | 1011.3 |
| 20260905100503 | 62 | 207 | 0.0 | 0.0 | 0.00 | 0.00 | 0.00 | 96 | 1011.3 |
| 20260905100004 | 62 | 207 | 0.0 | 0.0 | 0.00 | 0.00 | 0.00 | 96 | 1011.3 |
| 20260905095503 | 62 | 207 | 0.0 | 0.0 | 0.00 | 0.00 | 0.00 | 96 | 1011.3 |
| 20260905095005 | 62 | 207 | 0.0 | 0.0 | 0.00 | 0.00 | 0.00 | 96 | 1011.3 |
| 20260905094503 | 62 | 207 | 0.0 | 0.0 | 0.00 | 0.00 | 0.00 | 96 | 1011.3 |
| 20260905094004 | 62 | 207 | 0.0 | 0.0 | 0.00 | 0.00 | 0.00 | 96 | 1011.3 |
| 20260905093502 | 62 | 207 | 0.0 | 0.0 | 0.00 | 0.00 | 0.00 | 96 | 1011.3 |
| 20260905093002 | 62 | 207 | 0.0 | 0.0 | 0.00 | 0.00 | 0.00 | 96 | 1011.3 |
| 20260905092501 | 62 | 207 | 0.0 | 0.0 | 0.00 | 0.00 | 0.00 | 97 | 1011.3 |
| 20260905092001 | 62 | 178 | 0.0 | 0.0 | 0.00 | 0.00 | 0.00 | 97 | 1011.3 |
| 20260905091503 | 62 | 178 | 0.0 | 0.0 | 0.00 | 0.00 | 0.00 | 96 | 1011.3 |
| 20260905091003 | 62 | 188 | 0.0 | 0.0 | 0.00 | 0.00 | 0.00 | 96 | 1011.3 |
| 20260905090600 | 62 | 188 | 0.0 | 0.0 | 0.00 | 0.00 | 0.00 | 96 | 1011.3 |
| 20260905090100 | 62 | 171 | 0.0 | 0.0 | 0.00 | 0.00 | 0.00 | 96 | 1011.3 |
| 20260905085602 | 62 | 171 | 0.0 | 0.0 | 0.00 | 0.00 | 0.00 | 97 | 1011.4 |
| 20260905085058 | 61 | 171 | 0.0 | 0.0 | 0.00 | 0.00 | 0.00 | 96 | 1011.4 |
| 20260905084601 | 61 | 174 | 0.0 | 0.0 | 0.00 | 0.00 | 0.00 | 96 | 1011.4 |
| 20260905084058 | 61 | 174 | 0.0 | 0.0 | 0.00 | 0.00 | 0.00 | 96 | 1011.4 |
| 20260905083558 | 61 | 174 | 0.0 | 0.0 | 0.00 | 0.00 | 0.00 | 96 | 1011.4 |
| 20260905083059 | 61 | 174 | 0.0 | 0.0 | 0.00 | 0.00 | 0.00 | 96 | 1011.4 |
| 20260905082557 | 61 | 174 | 0.0 | 0.0 | 0.00 | 0.00 | 0.00 | 96 | 1011.8 |
| 20260905082057 | 61 | 174 | 0.0 | 0.0 | 0.00 | 0.00 | 0.00 | 96 | 1011.8 |
| 20260905081559 | 61 | 174 | 0.0 | 0.0 | 0.00 | 0.00 | 0.00 | 96 | 1011.8 |
| 20260905081058 | 61 | 174 | 0.0 | 0.0 | 0.00 | 0.00 | 0.00 | 96 | 1011.9 |
| 20260905080556 | 61 | 174 | 0.0 | 0.0 | 0.00 | 0.00 | 0.00 | 96 | 1011.9 |
| 20260905080104 | 61 | 174 | 0.0 | 0.0 | 0.00 | 0.00 | 0.00 | 96 | 1011.9 |
| 20260905075557 | 61 | 174 | 0.0 | 0.0 | 0.00 | 0.00 | 0.00 | 96 | 1011.9 |
| 20260905075056 | 61 | 174 | 0.0 | 0.0 | 0.00 | 0.00 | 0.00 | 96 | 1011.9 |
| 20260905074556 | 61 | 174 | 0.0 | 0.0 | 0.00 | 0.00 | 0.00 | 96 | 1011.9 |
| 20260905074055 | 60 | 174 | 0.0 | 0.0 | 0.00 | 0.00 | 0.00 | 95 | 1011.7 |
| 20260905073559 | 61 | 151 | 0.0 | 0.0 | 0.00 | 0.00 | 0.00 | 96 | 1011.7 |
| 20260905073055 | 61 | 151 | 0.0 | 0.0 | 0.00 | 0.00 | 0.00 | 96 | 1011.7 |
| 20260905072554 | 61 | 151 | 0.0 | 0.0 | 0.00 | 0.00 | 0.00 | 95 | 1011.8 |
| 20260905072053 | 61 | 151 | 0.0 | 0.0 | 0.00 | 0.00 | 0.00 | 95 | 1011.8 |
| 20260905071553 | 61 | 151 | 0.0 | 0.0 | 0.00 | 0.00 | 0.00 | 95 | 1011.8 |
| 20260905071051 | 61 | 288 | 0.0 | 0.0 | 0.00 | 0.00 | 0.00 | 95 | 1011.5 |
| 20260905070551 | 62 | 288 | 0.0 | 0.0 | 0.00 | 0.00 | 0.00 | 95 | 1011.5 |
| 20260905070052 | 62 | 288 | 0.0 | 0.0 | 0.00 | 0.00 | 0.00 | 95 | 1011.5 |
| 20260905065552 | 62 | 288 | 1.0 | 0.0 | 0.00 | 0.00 | 0.01 | 96 | 1011.4 |
| 20260905065050 | 62 | 288 | 1.0 | 0.0 | 0.00 | 0.00 | 0.01 | 96 | 1011.4 |
| 20260905064550 | 62 | 290 | 1.0 | 0.0 | 0.00 | 0.00 | 0.01 | 96 | 1011.4 |
| 20260905064049 | 62 | 269 | 1.0 | 0.0 | 0.00 | 0.00 | 0.01 | 96 | 1011.5 |
| 20260905063549 | 62 | 284 | 1.0 | 0.0 | 0.00 | 0.00 | 0.01 | 96 | 1011.5 |
| 20260905063056 | 62 | 233 | 2.0 | 0.0 | 0.00 | 0.00 | 0.01 | 96 | 1011.5 |
| 20260905062548 | 62 | 282 | 3.0 | 0.0 | 0.00 | 0.00 | 0.01 | 96 | 1011.5 |
| 20260905062049 | 62 | 297 | 2.0 | 0.0 | 0.00 | 0.00 | 0.01 | 96 | 1011.5 |
| 20260905061551 | 62 | 261 | 1.0 | 0.0 | 0.00 | 0.00 | 0.01 | 96 | 1011.5 |
| 20260905061049 | 62 | 209 | 1.0 | 0.0 | 0.00 | 0.00 | 0.01 | 96 | 1011.5 |
| 20260905060548 | 62 | 206 | 1.0 | 0.0 | 0.00 | 0.00 | 0.01 | 95 | 1011.5 |
| 20260905060048 | 62 | 190 | 2.0 | 0.0 | 0.00 | 0.00 | 0.01 | 95 | 1011.5 |